Warning: include_once(flyout-menu.php): Failed to open stream: No such file or directory in /home/donj51/www/www/top.php on line 64

Warning: include_once(): Failed opening 'flyout-menu.php' for inclusion (include_path='.:/usr/local/php81/lib/php') in /home/donj51/www/www/top.php on line 64

NOAA NWS Hourly Roundups by Site

Regional Weather Roundup for Des Moines, IA

To Select Another Site Choose from List

Select Site:  

Warning: fopen(./cache/Weather Forecast Office Hourly Roundup-IA.txt): Failed to open stream: No such file or directory in /home/donj51/www/www/inc-roundup-by-site.php on line 466

000
ASUS43 KDMX 030406
RWRIA

WEATHER ROUNDUP FOR IOWA
NATIONAL WEATHER SERVICE DES MOINES IA
1000 PM CST SAT MAR 02 2024

NOTE: "FAIR" INDICATES FEW OR NO CLOUDS BELOW 12,000 FEET WITH NO
SIGNIFICANT WEATHER AND/OR OBSTRUCTIONS TO VISIBILITY.

* - THESE STATIONS ARE NOT NWS STATIONS...THUS NOT UNDER NWS
QUALITY CONTROL.  THEY ALSO DO NOT REPORT WEATHER SUCH
AS PRECIPITATION OR FOG.

IAZ001>003-012>014-020>022-031>034-043>046-030500-
   NORTHWEST IOWA

CITY           SKY/WX    TMP DP  RH WIND       PRES   REMARKS
CARROLL *      PTCLDY    57  41  54 S18       29.60F TC  14
CHEROKEE *     PTCLDY    52  40  65 SE12      29.56F TC  11
DENISON *      PTCLDY    55  45  67 SE14G21   29.59F TC  13
LE MARS *      CLEAR     52  41  66 SE5       29.52F TC  11
MAURICE *      PTCLDY    50  43  76 SE14      29.51F TC  10
SHELDON *      PTCLDY    52  39  62 SE15      29.52F TC  11
SIOUX CITY     PTCLDY    55  42  61 SE9       29.51F TC  13
SPENCER        PTCLDY    55  37  50 SE16      29.58F TC  13
STORM LAKE *   MOCLDY    54  41  62 SE18      29.57F TC  12
$$

IAZ055>058-069>071-079>083-090>094-030500-
   SOUTHWEST IOWA

CITY           SKY/WX    TMP DP  RH WIND       PRES   REMARKS
ATLANTIC *     CLEAR     57  43  58 SE12G22   29.60F TC  14
AUDUBON *      PTCLDY    55  43  62 SE12      29.61F TC  13
CLARINDA *     CLEAR     57  41  54 S7        29.64F TC  14
COUNCIL BLFS * PTCLDY    55  43  62 SE13      29.55F TC  13
CRESTON *      CLEAR     55  41  58 SE14      29.66R TC  13
HARLAN  *      CLEAR     54  43  66 S9        29.59F TC  12
LAMONI         CLEAR     59  42  53 S13G28    29.69R TC  15
RED OAK *      CLEAR     57  43  58 S12       29.60F TC  14
SHENANDOAH *   CLEAR     57  43  58 SE14      29.58F TC  14
$$

IAZ047>049-059>061-072>074-084-030500-
   CENTRAL IOWA

CITY           SKY/WX    TMP DP  RH WIND       PRES   REMARKS
AMES           CLEAR     53  38  56 SE14      29.68R TC  12
ANKENY *       CLEAR     57  39  51 SE12      29.69S TC  14
BOONE *        CLEAR     50  39  66 SE16      29.64F TC  10
CHARITON *     PTCLDY    55  41  58 SE16      29.69S TC  13
DES MOINES     CLEAR     57  40  52 SE15      29.68S TC  14
GRINNELL*      CLEAR     55  41  60 SE16G24   29.73F TC  13
KNOXVILLE *    CLEAR     57  39  51 SE16G24   29.70S TC  14
MARSHALLTOWN   CLEAR     52  38  58 SE16      29.70S TC  11
NEWTON *       CLEAR     50  39  66 SE16      29.70S TC  10
PELLA *        CLEAR     55  39  54 SE15G22   29.72S TC  13
PERRY *        CLEAR     56  39  52 SE17      29.64S TC  14
$$

IAZ004>006-015-016-023>025-035-036-030500-
   NORTH CENTRAL IOWA

CITY           SKY/WX    TMP DP  RH WIND       PRES   REMARKS
ALGONA *       CLEAR     52  36  54 SE17G24   29.62F TC  11
CLARION *      PTCLDY    52  39  62 SE20G25   29.66S TC  11
ESTHERVILLE    MOCLDY    50  35  56 SE13      29.60F TC  10
FORT DODGE *   PTCLDY    56  39  53 SE13G23   29.63F TC  13
MASON CITY     PTCLDY    50  36  58 SE16      29.70S TC  10
FOREST CITY *  PTCLDY    50  36  57 SE15      29.68S TC  10
WEBSTER CITY * CLEAR     52  37  58 SE17G23   29.64S TC  11
IOWA FALLS *   CLEAR     52  36  55 SE17      29.71R TC  11
$$

IAZ007>011-017>019-026>030-037>042-050>054-066-030500-
   NORTHEAST IOWA

CITY           SKY/WX    TMP DP  RH WIND       PRES   REMARKS
CEDAR RAPIDS   CLEAR     52  39  61 SE23G32   29.77F TC  11
CHARLES CITY * CLEAR     50  39  66 SE16      29.73R TC  10
CLINTON *      CLEAR     48  38  68 SE13      29.87S TC   9
DECORAH *      MOCLDY    50  37  62 SE12G18   29.76S TC  10
DUBUQUE        CLEAR     48  37  65 S17       29.83S TC   9
MONTICELLO *   CLEAR     48  37  66 SE12      29.80F TC   9
OELWEIN *      CLEAR     50  37  62 SE17      29.76F TC  10
WATERLOO       CLEAR     54  38  54 SE20G32   29.73S TC  12
$$

IAZ064-065-067-068-078-030500-
   EAST CENTRAL IOWA

CITY           SKY/WX    TMP DP  RH WIND       PRES   REMARKS
DAVENPORT      CLEAR     51  39  63 SE22G31   29.86F TC  11
IOWA CITY      CLEAR     50  39  66 SE13      29.81F TC  10
MT. PLEASANT * CLEAR     52  39  62 S21G28    29.80F TC  11
MUSCATINE *    CLEAR     54  41  62 SE9G16    29.83S TC  12
QUAD CITIES    CLEAR     52  40  63 S15       29.84F TC  11
$$

IAZ062-063-075>077-085>089-095>099-030500-
   SOUTHEAST IOWA

CITY           SKY/WX    TMP DP  RH WIND       PRES   REMARKS
BURLINGTON     CLEAR     52  41  66 SE13      29.83F TC  11
FAIRFIELD *    CLEAR     52  36  54 SE18      29.76F TC  11
FORT MADISON *   N/A     52  43  71 SE12      29.82F TC  11
KEOKUK *       CLEAR     54  39  58 SE12G26   29.81F TC  12
OSKALOOSA *    CLEAR     54  40  57 SE16      29.74S TC  12
CENTERVILLE *  CLEAR     55  37  50 SE16      29.74S TC  13
OTTUMWA        CLEAR     55  39  54 S21G31    29.74S TC  13
WASHINGTON *   CLEAR     52  43  71 SE16      29.77F TC  11
$$

ABBREVIATIONS USED IN REMARKS
   TC - TEMPERATURES IN CELSIUS
  WCI - WIND CHILL INDEX
   HX - HEAT INDEX
  VSB - VISIBILITY
$$



 

View Past Reports for Des Moines, IA.

Products Courtesy of NOAA-NWS
NWS Information Parsing Script by Ken True at Saratoga Weather - Script by SE Lincoln Weather.